Wind_Speed
7 8 8 7 8 7 7 7 7 7 7 7 7 7 8 8 9 9 9 9 9 10 10 10 11 11 11 11 11 11 10 11 11 12 12 13 13 14 15 15 16 17 17
8 8 8 8 8 8 8 8 8 8 8 8 8 9 9 9 9 10 10 10 10 11 11 11 11 12 12 12 12 12 12 12 12 13 14 14 15 15 16 16 17 18 19
8 9 9 8 8 8 8 8 8 8 8 8 8 9 9 9 10 11 11 11 11 11 11 11 12 12 13 13 13 13 13 13 14 15 15 16 15 16 17 17 17 18 19
9 9 9 9 9 9 9 8 8 8 8 9 9 10 10 10 11 12 12 12 12 12 11 12 12 13 13 13 13 13 14 14 15 15 16 16 16 16 17 18 18 18 19
11 10 10 10 10 10 10 10 10 10 10 10 11 11 11 11 12 13 12 13 13 13 13 13 14 14 14 14 14 14 15 15 15 16 16 17 17 17 18 18 19 18 19
11 11 11 11 11 11 11 11 10 11 11 12 12 13 13 13 13 14 14 14 14 14 14 14 15 15 15 15 15 16 16 17 17 17 18 17 18 18 18 18 19 19 19
14 13 12 12 12 12 12 12 12 13 13 14 14 14 14 14 15 15 15 16 16 16 16 16 16 17 17 17 17 17 17 18 18 19 19 19 19 19 20 20 20 20 21
16 15 13 13 13 14 14 14 14 15 15 16 16 16 16 16 16 16 16 17 17 18 18 18 18 18 19 19 18 19 19 19 20 20 20 20 21 21 21 21 21 22 22
18 17 16 15 15 15 16 16 16 17 17 17 17 17 17 17 17 18 18 18 19 19 20 20 19 20 20 20 20 20 20 21 21 21 22 22 22 22 22 22 22 22 23
20 20 19 18 17 17 18 18 18 18 18 18 18 18 19 19 20 20 20 20 20 20 21 21 21 21 21 21 21 21 22 22 23 23 24 23 23 23 23 23 24 24 25
23 22 21 21 20 20 20 20 20 20 20 20 20 20 21 21 22 22 22 22 22 22 22 22 22 23 23 23 23 23 24 24 24 24 25 25 24 24 24 24 25 26 26
25 25 24 23 23 22 22 22 22 22 22 22 22 22 22 23 23 23 24 24 24 24 24 24 24 25 25 25 25 25 25 25 25 25 25 25 25 25 25 26 27 27 28
27 26 26 25 25 25 24 24 24 24 24 24 24 24 24 24 25 25 25 26 26 26 26 26 26 26 26 26 26 26 26 26 26 26 27 27 27 27 27 28 28 28 29
29 28 28 27 27 27 26 27 27 26 26 26 26 26 26 26 27 27 28 27 27 27 27 27 27 28 28 27 27 28 28 28 28 28 29 29 29 28 28 29 29 30 30
31 31 30 30 29 29 29 29 29 29 28 28 28 28 28 28 29 29 30 29 28 28 28 28 28 28 28 29 29 30 30 30 29 30 30 30 29 29 29 29 30 30 30
34 33 33 32 32 31 32 32 31 31 31 31 31 30 30 31 30 30 30 30 30 30 30 29 29 28 28 29 30 30 31 31 30 30 30 30 30 30 30 31 31 30 31
35 35 35 34 34 33 33 34 34 34 33 33 33 33 32 32 32 32 32 31 31 31 30 30 30 30 30 30 30 31 31 31 31 31 30 31 31 31 31 31 31 31 31
36 35 35 35 35 35 35 35 35 35 35 33 32 32 33 33 33 33 33 32 32 32 31 31 31 31 31 31 31 31 31 31 31 31 31 31 30 30 30 30 31 31 31
36 36 36 36 36 36 36 35 34 35 35 34 33 33 33 32 32 33 33 33 32 32 32 32 32 32 32 31 31 30 31 31 31 31 31 31 31 30 30 31 31 31 30
36 36 36 36 36 37 37 36 34 35 34 34 34 33 33 33 32 32 32 32 32 32 32 32 32 32 32 32 31 31 31 30 31 31 31 31 31 31 31 31 31 30 30
34 34 34 34 34 34 35 35 34 35 35 35 34 34 34 34 34 34 34 34 33 32 32 32 32 32 32 32 31 30 30 30 30 30 30 30 30 30 30 30 30 30 29
34 34 34 34 34 34 34 34 34 34 34 35 34 35 35 35 35 35 34 34 34 33 33 32 32 32 31 31 30 29 30 30 30 29 29 29 29 29 30 29 29 29 29
32 33 34 34 34 34 33 33 34 34 35 35 35 35 36 35 35 35 35 34 34 34 33 33 32 31 31 30 29 29 29 29 29 29 28 28 29 29 29 28 28 29 29
32 32 33 33 34 34 34 34 35 36 36 36 35 36 36 35 35 35 35 35 34 34 32 32 31 30 30 29 29 29 29 29 28 28 28 28 28 28 28 28 28 29 28
31 32 33 34 34 34 34 35 36 36 36 36 36 36 35 34 34 35 35 34 33 32 31 31 31 31 30 29 28 28 28 28 28 28 28 27 28 28 28 28 28 28 28
32 32 33 34 34 34 35 36 36 36 36 36 36 35 34 34 34 34 35 34 33 32 31 31 31 31 30 28 28 28 27 27 27 27 27 27 27 27 27 27 28 28 28
Wind_Direction
332 338 336 335 339 340 340 342 346 345 343 344 342 339 335 334 336 336 335 331 330 329 330 326 324 327 325 324 324 325 324 321 318 316 314 309 305 301 299 299 297 299 297
316 321 326 324 323 327 331 334 337 336 337 335 336 332 328 330 332 334 333 328 325 326 327 326 324 325 325 324 323 322 321 319 318 316 314 311 307 305 302 301 298 298 298
304 308 312 318 320 318 319 322 324 326 329 329 328 328 327 326 327 330 330 327 325 325 326 326 326 324 324 322 322 322 321 320 318 315 314 311 309 308 307 305 304 302 298
296 298 301 306 309 314 315 313 315 317 321 324 323 323 326 327 327 328 327 326 325 324 323 323 324 324 323 321 322 323 321 320 320 318 316 313 311 310 309 309 307 305 303
287 288 292 296 298 301 304 307 307 311 315 316 316 316 319 320 321 321 320 321 320 319 318 317 318 320 322 321 321 320 319 317 317 317 316 312 310 310 309 307 307 307 306
277 279 285 289 291 293 296 300 299 301 306 310 311 311 313 316 317 315 313 313 315 315 315 314 314 316 317 318 317 316 316 315 314 314 314 313 311 310 309 308 307 306 307
275 276 277 279 284 289 293 295 296 297 299 303 305 305 306 308 311 310 308 309 311 311 311 310 310 310 312 313 314 315 314 313 311 311 310 310 309 310 310 308 307 305 306
273 272 272 274 277 281 286 290 292 295 297 298 297 298 301 304 308 306 305 306 307 308 307 306 306 307 307 308 309 310 309 308 309 310 309 308 307 308 307 306 306 306 306
271 272 272 275 278 281 282 285 289 290 291 293 292 295 300 302 302 303 303 303 304 305 305 304 304 305 304 304 305 306 307 307 306 308 308 307 306 306 306 306 306 306 307
270 271 271 273 278 282 282 285 287 287 287 290 292 293 295 298 299 299 299 300 301 303 304 303 303 305 303 302 301 302 302 304 304 304 306 305 304 304 304 304 305 306 308
269 270 270 272 276 279 280 283 284 284 285 287 287 290 292 294 295 297 298 298 299 301 304 304 303 303 302 301 302 301 301 302 304 304 305 304 303 303 302 302 304 305 306
266 267 269 270 272 276 278 280 282 283 283 284 285 287 290 293 293 297 296 297 298 299 301 301 301 301 300 300 301 300 299 300 302 303 304 304 302 301 300 301 302 303 304
264 265 267 268 271 275 277 279 281 282 283 284 287 289 290 291 292 293 295 296 297 297 299 300 300 300 299 299 299 298 298 299 300 301 302 301 300 300 300 300 301 302 303
263 265 267 267 270 274 278 279 280 280 282 284 285 286 287 288 290 292 293 292 293 294 296 298 298 298 299 298 297 297 297 298 299 299 300 299 298 299 300 300 301 301 302
262 264 265 266 268 271 274 276 278 279 280 281 282 283 285 287 289 291 292 291 292 293 293 295 295 296 297 297 297 296 297 297 297 297 298 298 297 297 297 299 301 302 303
261 263 264 266 268 271 273 275 277 278 280 281 283 285 286 287 287 288 289 289 290 291 292 294 295 297 297 298 298 296 296 296 296 296 296 296 296 296 296 298 300 301 302
261 262 264 266 268 270 272 274 276 278 280 282 283 283 284 285 285 285 285 286 287 289 291 292 295 296 297 297 297 296 295 295 296 295 295 296 296 296 296 297 299 300 302
260 261 263 265 268 269 271 273 275 277 279 281 284 284 283 284 283 284 284 284 286 288 290 292 294 295 295 295 296 295 295 295 295 294 295 295 295 296 296 297 298 299 300
260 262 263 265 267 269 271 273 276 278 279 282 284 285 286 286 286 285 284 285 287 289 290 292 293 293 294 294 294 294 295 295 294 294 294 294 295 296 297 297 298 298 299
261 261 263 265 266 268 271 273 274 276 279 280 282 284 286 286 286 286 285 286 286 288 290 291 291 292 293 293 292 292 292 292 293 293 294 294 295 297 298 297 297 297 297
261 262 264 265 267 269 272 274 274 276 278 279 280 282 284 284 284 285 286 286 287 287 289 289 290 292 293 291 290 290 290 291 291 293 294 295 296 297 298 298 297 296 295
263 264 265 267 268 269 271 272 274 277 279 280 282 283 283 283 284 285 285 286 286 286 287 287 288 291 291 290 289 288 288 289 290 293 294 294 296 297 298 297 297 296 296
265 264 265 265 267 269 271 273 275 277 278 279 281 282 282 283 284 286 287 286 285 285 285 287 288 288 289 289 287 287 288 288 289 290 292 293 294 295 296 295 296 297 296
264 264 266 266 268 269 271 273 276 277 277 278 280 281 280 281 284 287 287 287 285 285 286 287 286 287 288 286 285 285 287 288 287 288 291 294 296 297 298 298 299 299 298
263 264 265 267 268 269 272 274 276 277 278 278 280 281 282 283 286 287 287 287 286 285 284 283 284 285 284 284 284 285 285 286 287 290 292 294 295 298 299 299 300 299 299
264 265 268 269 270 271 273 274 276 277 278 278 280 280 282 284 285 286 286 285 284 283 283 282 282 282 282 281 283 284 284 285 286 289 291 293 295 297 298 298 299 299 300
Height
5898 5897 5896 5894 5893 5892 5891 5890 5889 5888 5887 5886 5885 5883 5882 5881 5879 5878 5877 5875 5874 5872 5871 5869 5867 5865 5863 5861 5859 5857 5855 5853 5851 5849 5847 5845 5843 5841 5839 5837 5835 5832 5830
5897 5896 5894 5893 5892 5891 5890 5889 5887 5886 5885 5884 5883 5882 5881 5879 5878 5877 5875 5873 5872 5870 5869 5867 5865 5863 5861 5859 5857 5855 5853 5851 5849 5846 5844 5842 5840 5837 5835 5833 5831 5828 5826
5895 5894 5893 5891 5890 5889 5888 5887 5886 5885 5884 5883 5881 5880 5879 5877 5876 5874 5873 5871 5869 5868 5866 5864 5862 5860 5858 5856 5854 5852 5850 5848 5846 5843 5841 5839 5836 5834 5831 5829 5827 5824 5821
5892 5891 5890 5889 5888 5887 5886 5885 5884 5883 5882 5881 5879 5878 5877 5875 5874 5872 5870 5868 5866 5865 5863 5861 5860 5858 5856 5854 5851 5849 5847 5845 5842 5840 5837 5835 5832 5830 5827 5825 5822 5820 5817
5889 5888 5887 5887 5886 5885 5884 5883 5882 5881 5880 5878 5877 5876 5874 5873 5871 5869 5868 5866 5864 5862 5860 5858 5856 5854 5852 5850 5848 5846 5844 5841 5839 5836 5834 5831 5829 5826 5823 5821 5818 5815 5812
5886 5885 5885 5884 5883 5882 5881 5880 5879 5878 5877 5876 5874 5873 5872 5870 5868 5867 5865 5863 5861 5859 5857 5855 5853 5851 5849 5847 5845 5843 5840 5838 5835 5833 5830 5827 5824 5822 5819 5816 5813 5811 5808
5882 5882 5881 5880 5880 5879 5878 5877 5876 5875 5874 5873 5871 5870 5868 5867 5865 5863 5862 5860 5858 5856 5853 5851 5849 5847 5845 5843 5841 5838 5836 5833 5831 5829 5826 5823 5820 5818 5815 5812 5809 5806 5803
5878 5878 5877 5877 5876 5875 5874 5873 5872 5871 5870 5869 5867 5866 5864 5863 5861 5859 5857 5855 5853 5851 5849 5847 5845 5843 5841 5839 5836 5834 5831 5829 5826 5824 5821 5818 5815 5812 5809 5806 5803 5800 5797
5873 5873 5872 5872 5872 5871 5870 5869 5867 5866 5865 5864 5862 5861 5860 5858 5856 5854 5853 5851 5849 5847 5844 5842 5840 5838 5836 5833 5831 5829 5826 5823 5821 5818 5815 5812 5809 5806 5804 5801 5798 5795 5792
5868 5868 5867 5867 5866 5866 5865 5863 5862 5861 5860 5859 5858 5856 5855 5853 5851 5849 5847 5845 5843 5841 5839 5837 5835 5832 5830 5827 5825 5823 5820 5818 5815 5812 5809 5806 5803 5800 5798 5795 5792 5789 5785
5861 5861 5861 5861 5860 5860 5859 5858 5858 5856 5855 5854 5852 5851 5849 5848 5846 5844 5842 5840 5838 5836 5834 5831 5829 5826 5824 5821 5819 5817 5814 5811 5809 5806 5803 5800 5797 5794 5791 5788 5785 5782 5779
5853 5854 5854 5854 5854 5853 5852 5852 5851 5850 5849 5847 5846 5845 5843 5841 5840 5838 5835 5833 5831 5829 5827 5825 5822 5820 5817 5815 5812 5810 5807 5804 5802 5799 5796 5793 5790 5787 5784 5781 5778 5774 5771
5846 5846 5846 5846 5846 5845 5845 5844 5843 5843 5842 5841 5839 5838 5836 5835 5833 5831 5829 5827 5825 5822 5820 5817 5815 5813 5810 5808 5805 5802 5800 5797 5794 5791 5789 5786 5783 5780 5776 5773 5770 5766 5763
5838 5838 5839 5838 5838 5838 5837 5837 5836 5835 5834 5833 5832 5830 5828 5827 5825 5823 5821 5819 5816 5814 5812 5810 5807 5805 5802 5799 5797 5794 5792 5789 5786 5783 5780 5777 5774 5771 5768 5765 5762 5758 5755
5830 5830 5830 5830 5830 5830 5830 5829 5828 5828 5826 5825 5823 5822 5820 5818 5816 5814 5812 5810 5808 5806 5803 5801 5799 5796 5794 5791 5789 5786 5783 5780 5777 5775 5772 5769 5766 5763 5760 5757 5754 5750 5747
5820 5821 5821 5821 5821 5821 5821 5820 5819 5818 5817 5816 5814 5812 5811 5809 5807 5804 5803 5801 5799 5797 5794 5792 5790 5788 5785 5783 5780 5777 5774 5771 5769 5766 5763 5760 5757 5755 5752 5748 5745 5742 5738
5810 5811 5811 5811 5811 5811 5810 5810 5809 5809 5807 5806 5804 5803 5801 5799 5797 5794 5792 5791 5789 5787 5785 5783 5781 5779 5776 5773 5771 5768 5765 5762 5760 5757 5754 5751 5748 5746 5743 5740 5737 5733 5730
5800 5800 5801 5801 5801 5801 5800 5800 5799 5798 5797 5796 5794 5792 5790 5788 5786 5785 5783 5781 5779 5777 5776 5774 5771 5769 5766 5764 5761 5759 5756 5753 5750 5747 5745 5742 5739 5737 5734 5731 5728 5725 5721
5789 5790 5790 5790 5790 5790 5790 5789 5788 5788 5787 5786 5784 5782 5780 5778 5776 5775 5773 5772 5770 5768 5766 5764 5761 5759 5757 5754 5752 5749 5746 5744 5741 5738 5736 5733 5730 5727 5725 5722 5719 5716 5713
5777 5778 5779 5779 5779 5779 5779 5779 5778 5777 5777 5775 5774 5773 5771 5769 5767 5765 5763 5762 5760 5758 5756 5754 5751 5749 5747 5745 5742 5740 5737 5734 5732 5729 5726 5724 5721 5718 5716 5713 5710 5707 5704
5766 5767 5768 5768 5768 5768 5768 5768 5767 5767 5766 5765 5763 5762 5761 5759 5757 5756 5754 5752 5750 5748 5746 5744 5741 5739 5737 5735 5732 5730 5727 5725 5723 5720 5718 5715 5712 5709 5706 5703 5701 5698 5695
5756 5757 5758 5758 5758 5758 5758 5757 5756 5756 5755 5754 5752 5751 5749 5748 5747 5745 5743 5741 5739 5737 5735 5733 5731 5729 5727 5725 5722 5720 5718 5716 5713 5711 5709 5706 5703 5700 5697 5694 5692 5689 5686
5746 5747 5747 5747 5748 5748 5747 5747 5746 5745 5744 5743 5742 5740 5739 5737 5736 5734 5732 5730 5728 5726 5724 5723 5721 5719 5717 5715 5713 5711 5709 5706 5704 5702 5699 5697 5694 5691 5689 5686 5683 5680 5677
5736 5736 5737 5737 5737 5737 5737 5736 5736 5734 5733 5732 5731 5729 5728 5726 5725 5723 5721 5719 5717 5715 5713 5712 5710 5709 5707 5705 5703 5701 5699 5697 5695 5693 5690 5688 5685 5682 5679 5677 5674 5671 5668
5726 5727 5727 5727 5726 5726 5726 5725 5725 5724 5722 5721 5720 5719 5717 5715 5714 5712 5710 5708 5706 5704 5703 5702 5700 5699 5697 5695 5693 5691 5689 5688 5686 5684 5682 5679 5677 5674 5671 5668 5665 5662 5659
5717 5717 5717 5717 5716 5716 5715 5714 5713 5712 5711 5710 5709 5707 5706 5704 5703 5701 5699 5697 5696 5694 5693 5692 5690 5689 5687 5686 5684 5682 5680 5679 5677 5675 5673 5670 5668 5665 5663 5660 5657 5654 5651